Starlink 4267

operational
NORAD ID: 52864 Int'l Des: 2022-062 Owner: SPXS Country: US Constellation: starlink
LEOCIRCULAR

Starlink 4267について

説明を読み込み中...

リアルタイム位置

3D地球を読み込み中...

次回通過

高度履歴

Altitude vs Time

uPlot chart will show altitude changes over time

軌道要素

1 52864U 22062AL 25278.53582236 .00000590 00000-0 55191-4 0 9994
2 52864 53.2195 0.6372 0001535 105.0083 255.1079 15.08838516182501
Epoch: Oct 5, 2025 • Age: 11 hours

現在のステータス

高度 540.1 km
速度 7.59 km/s
衛星直下点 7.36°N, 11.28°W
打ち上げ日 Jun 17, 2022
運用期間 3.3 years
タイプ internet

技術仕様

分類 Payload
質量 297.00 kg
乾燥質量 275.00 kg
総質量 297.00 kg
長さ 0.20 m
直径 2.80 m
スパン 9.00 m
形状 Box + pan
製造者 SPXS
バスタイプ Starlink
フェーズステータス In Orbit
所有者/国 SPXS/US

大規模コンステレーション

Loading constellations...